EW9355 Weather Reports


Display with metric or nautical units.
time (UTC)temp
F
wind
direction
speed
MPH
gust
MPH
rain 1hr
in
rain 24hr
in
rain mn
in
humidity
%
barometer
mb
20260507011559 60 80 0.0 1.0 0.00 0.24 0.24 81 1012.7
20260507010056 60 73 0.0 1.0 0.00 0.24 0.24 80 1012.5
20260507004556 60 74 0.0 1.0 0.00 0.24 0.24 80 1012.5
20260507003056 60 45 0.0 1.0 0.00 0.24 0.24 80 1012.5
20260507001558 60 36 0.0 2.0 0.00 0.24 0.24 79 1012.2
20260507000054 61 14 0.0 3.0 0.00 0.24 0.24 79 1011.9
20260506234614 61 121 0.0 1.0 0.00 0.24 0.24 78 1011.7
20260506233052 61 76 0.0 1.0 0.00 0.24 0.24 77 1011.8
20260506231621 62 62 0.0 2.0 0.00 0.24 0.24 76 1011.6
20260506230050 62 109 0.0 2.0 0.00 0.24 0.24 74 1011.3
20260506224550 62 32 0.0 2.0 0.00 0.24 0.24 75 1011.2
20260506223056 62 34 0.0 3.0 0.00 0.24 0.24 74 1011.3
20260506221551 62 5 0.0 2.0 0.00 0.24 0.24 74 1011.3
20260506220048 62 60 0.0 2.0 0.00 0.24 0.24 74 1010.6
20260506214548 62 67 0.0 1.0 0.00 0.24 0.24 75 1010.6
20260506213047 63 57 0.0 2.0 0.00 0.24 0.24 73 1011.0
20260506211546 63 83 0.0 1.0 0.00 0.24 0.24 72 1011.2
20260506210046 63 85 0.0 2.0 0.00 0.24 0.24 74 1011.2
20260506204554 62 86 0.0 2.0 0.00 0.24 0.24 74 1011.4
20260506203044 63 273 0.0 3.0 0.00 0.24 0.24 73 1011.5
20260506201544 61 30 0.0 3.0 0.00 0.24 0.24 76 1011.7
20260506194548 59 5 0.0 3.0 0.00 0.24 0.24 80 1011.9
20260506193042 58 26 0.0 1.0 0.00 0.24 0.24 82 1012.2
20260506191541 58 67 0.0 1.0 0.00 0.24 0.24 82 1012.4
20260506190041 58 88 0.0 1.0 0.00 0.24 0.24 82 1012.3
20260506184541 58 119 0.0 1.0 0.00 0.24 0.24 83 1012.4
20260506183054 57 69 0.0 1.0 0.00 0.24 0.24 85 1011.8
20260506181544 56 81 0.0 3.0 0.00 0.24 0.24 86 1010.7
20260506180038 56 342 0.0 3.0 0.00 0.24 0.24 88 1010.6
20260506174538 56 87 0.0 1.0 0.00 0.24 0.24 89 1011.3
20260506173037 55 66 0.0 1.0 0.00 0.24 0.24 89 1011.7
20260506171543 55 69 0.0 1.0 0.00 0.24 0.24 88 1011.9
20260506170043 55 96 0.0 1.0 0.00 0.24 0.24 88 1011.8
20260506164545 55 5 0.0 1.0 0.00 0.24 0.24 88 1011.6
20260506163036 55 84 0.0 1.0 0.01 0.24 0.24 88 1011.9
20260506161539 56 10 0.0 1.0 0.24 0.24 0.24 90 1012.4
20260506160043 55 108 0.0 1.0 0.24 0.24 0.24 89 1011.8
20260506154533 54 132 0.0 2.0 0.24 0.24 0.24 88 1011.1
20260506153032 55 296 0.0 1.0 0.23 0.23 0.23 86 1012.9
20260506151535 55 14 0.0 1.0 0.00 0.00 0.00 85 1012.9
20260506150032 55 355 0.0 8.0 0.00 0.00 0.00 84 1012.8
20260506144528 55 55 0.0 2.0 0.00 0.00 0.00 82 1011.4
20260506143038 55 108 0.0 8.0 0.00 0.00 0.00 82 1012.2
20260506141522 55 33 0.0 2.0 0.00 0.00 0.00 83 1011.7
20260506140023 55 346 0.0 2.0 0.00 0.00 0.00 82 1011.6
20260506134520 55 219 0.0 2.0 0.00 0.00 0.00 82 1011.0
20260506133023 55 14 0.0 2.0 0.00 0.00 0.00 81 1011.0
20260506131519 55 344 0.0 2.0 0.00 0.00 0.00 81 1010.5
20260506130014 55 43 0.0 11.0 0.00 0.00 0.00 81 1010.5
20260506124513 55 5 0.0 2.0 0.00 0.00 0.00 80 1010.5
20260506123012 55 121 0.0 2.0 0.00 0.00 0.00 80 1010.2
20260506121509 56 360 1.0 12.0 0.00 0.00 0.00 78 1010.0
20260506120006 56 5 0.0 8.0 0.00 0.00 0.00 77 1010.0
20260506114505 56 29 0.0 10.0 0.00 0.00 0.00 77 1009.6
20260506113002 57 80 0.0 3.0 0.00 0.00 0.00 77 1009.1
20260506111559 57 5 0.0 4.0 0.00 0.00 0.00 75 1009.2
20260506104613 58 46 0.0 3.0 0.00 0.00 0.00 75 1008.4
20260506103053 59 355 0.0 2.0 0.00 0.00 0.00 76 1008.3
20260506101556 59 24 0.0 1.0 0.00 0.00 0.00 74 1007.9
20260506100046 59 348 0.0 2.0 0.00 0.00 0.00 74 1007.5
20260506094552 59 350 0.0 2.0 0.00 0.00 0.00 73 1007.5
20260506093047 59 86 0.0 2.0 0.00 0.00 0.00 74 1007.4
20260506091542 59 24 0.0 1.0 0.00 0.00 0.00 74 1007.3
20260506090043 60 351 0.0 3.0 0.00 0.00 0.00 75 1007.2
20260506084538 60 342 0.0 2.0 0.00 0.00 0.00 75 1006.9
20260506083036 60 71 0.0 1.0 0.00 0.00 0.00 75 1007.0
20260506081536 60 63 0.0 1.0 0.00 0.00 0.00 75 1006.6
20260506071532 61 78 0.0 2.0 0.00 0.00 0.00 74 1006.8
20260506061526 63 70 0.0 1.0 0.00 0.00 0.00 75 1006.7
20260506044511 66 13 0.0 4.0 0.00 0.00 0.00 74 1006.3
20260506043007 67 355 0.0 2.0 0.00 0.00 0.00 74 1006.2
20260506041506 68 84 0.0 9.0 0.00 0.00 0.00 73 1005.9
20260506040100 69 5 0.0 4.0 0.00 0.00 0.00 73 1005.4
20260506034559 70 355 0.0 4.0 0.00 0.00 0.00 72 1005.5
20260506033110 71 360 0.0 5.0 0.00 0.00 0.00 72 1005.1
20260506031556 71 61 0.0 3.0 0.00 0.00 0.00 71 1005.1
20260506030050 72 349 0.0 5.0 0.00 0.00 0.00 71 1005.0
20260506024548 74 299 1.0 6.0 0.00 0.00 0.00 69 1004.3
20260506023046 74 350 0.0 3.0 0.00 0.00 0.00 67 1003.9
20260506021545 75 76 0.0 2.0 0.00 0.00 0.00 66 1003.4
20260506020043 75 23 0.0 1.0 0.00 0.00 0.00 65 1003.3
20260506014550 76 47 0.0 5.0 0.00 0.00 0.00 66 1003.2
20260506013042 76 85 0.0 3.0 0.00 0.00 0.00 65 1002.6